Home > Weather > Niagara Falls > Past weeks

Flag for Canada Past Weather in Niagara Falls, Ontario, Canada — Yesterday and Last 2 Weeks

Now
83 °F

Partly sunny.


Feels Like: 87 °F
Forecast: 73 / 85 °F
Wind: 9 mph from Southwest

Location: Niagara Falls International Airport

Current Time: Aug 25, 2016 at 12:55:57 PM

Latest Report: Aug 25, 2016 at 11:53 AM


Visibility: 10 mi

Pressure: 29.94 "Hg

Humidity: 65%

Dew Point: 70 °F

Location of Niagara FallsLocation

Past Weather in Niagara Falls — Graph

°F

Niagara Falls Temperature Yesterday

Maximum temperature yesterday: 86 °F (at 3:53 PM)
Minimum temperature yesterday: 63 °F (at 5:53 AM)
Average temperature yesterday: 76 °F

High & Low Weather Summary for the Past Weeks

 TemperatureHumidityPressure
High92 °F (Aug 11, 3:53 PM)91% (Aug 16, 4:53 AM)30.27 "Hg (Aug 16, 4:53 AM)
Low58 °F (Aug 23, 4:53 AM)35% (Aug 19, 5:53 PM)29.60 "Hg (Aug 21, 3:53 AM)
Average77 °F66%29.97 "Hg
* Reported Aug 10 11:53 AM — Aug 25 11:53 AM, Niagara Falls, Weather by CustomWeather, © 2016

Note: Actual official high and low records may vary slightly from our data, if they occured in-between our weather recording intervals... More about our weather records

Advertising

Niagara Falls Weather History for the Previous 24 Hours

Scroll right to see more
 ConditionsComfort  
Time TempWeatherWind HumidityBarometerVisibility
11:53 AM
Thu, Aug 25
83 °FPartly sunny.9 mph65%29.94 "Hg10 mi
10:53 AM82 °FBroken clouds.12 mph70%29.94 "Hg10 mi
9:53 AM79 °FPartly sunny.9 mph79%29.93 "Hg7 mi
8:53 AM76 °FMostly cloudy.8 mph88%29.93 "Hg7 mi
7:53 AM75 °FLight rain. Fog.5 mph88%29.92 "Hg6 mi
6:59 AM75 °FLow clouds.6 mph85%29.94 "Hg7 mi
6:53 AM75 °FOvercast.7 mph85%29.92 "Hg10 mi
5:53 AM75 °FPassing clouds.12 mph85%29.91 "Hg10 mi
4:50 AM75 °FPassing clouds.12 mph83%29.93 "Hg10 mi
2:53 AM78 °FLight rain. Mostly cloudy.8 mph62%29.90 "Hg10 mi
1:53 AM79 °FPassing clouds.12 mph60%29.90 "Hg10 mi
12:53 AM78 °FOvercast.12 mph60%29.94 "Hg10 mi
11:53 PM
Wed, Aug 24
79 °FPassing clouds.9 mph56%29.96 "Hg10 mi
10:53 PM78 °FPassing clouds.8 mph58%29.98 "Hg10 mi
9:53 PM77 °FPassing clouds.6 mph62%29.99 "Hg10 mi
8:53 PM77 °FBroken clouds.7 mph60%30.01 "Hg10 mi
7:53 PM79 °FBroken clouds.7 mph52%30.02 "Hg10 mi
6:53 PM82 °FBroken clouds.10 mph48%30.02 "Hg10 mi
5:53 PM84 °FPartly sunny.15 mph43%30.04 "Hg10 mi
4:53 PM85 °FPartly sunny.17 mph43%30.05 "Hg10 mi
3:53 PM86 °FScattered clouds.15 mph42%30.06 "Hg10 mi
2:53 PM85 °FBroken clouds.17 mph43%30.09 "Hg10 mi
1:53 PM84 °FPartly sunny.13 mph45%30.10 "Hg10 mi
12:53 PM83 °FPartly sunny.17 mph44%30.12 "Hg10 mi
Weather by CustomWeather, © 2016

See weather overviewHow to use our weather pages